Flag for Belgium Weather past 2 weeks in Kortrijk, Belgium

Now
43 °F

Sunny.


Feels Like: 37 °F
Forecast: 39 / 48 °F
Wind: 10 mph from West

Location: Lille Airport

Current Time: Jan 25, 2015 at 3:30:47 PM

Latest Report: Jan 25, 2015 at 2:30 PM


Visibility: 10 mi

Pressure: 30.42 "Hg

Humidity: 81%

Dew point: 37 °F

Location of KortrijkLocation

Historic Weather in Kortrijk — Graph

°F

Kortrijk temperature yesterday

Maximum temperature yesterday: 43 °F (at 12:00 PM)
Minimum temperature yesterday: 28 °F (at 12:00 AM)
Average temperature yesterday: 35 °F

Past Weeks' High & Low Weather Summary

 TemperatureHumidityPressure
High55 °F (Jan 10, 2:00 PM)100% (Jan 16, 9:30 PM)30.48 "Hg (Jan 16, 9:30 PM)
Low27 °F (Jan 23, 10:30 PM)61% (Jan 10, 8:00 PM)29.36 "Hg (Jan 15, 2:00 PM)
Average38 °F87%29.95 "Hg
* Reported Jan 10 2:00 PM — Jan 25 2:30 PM, Kortrijk, Weather by CustomWeather, © 2014

Note: Actual official high and low records may vary slightly from our data, if they occured in-between our weather recording intervals... More about our weather records

Advertising

Kortrijk weather history for previous 24 hours

 ConditionsComfort  
Time TempWeatherWind HumidityBarometerVisibility
2:30 PM
Jan 25
43 °FSunny.10 mph81%30.42 "Hg10 mi
2:00 PM43 °FSunny.7 mph81%30.42 "Hg10 mi
1:30 PM41 °FSunny.7 mph87%30.45 "Hg10 mi
1:00 PM41 °FSunny.7 mph87%30.45 "Hg10 mi
12:30 PM39 °FSunny.7 mph87%30.45 "Hg10 mi
12:00 PM39 °FSunny.7 mph93%30.45 "Hg10 mi
11:30 AM39 °FSunny.5 mph87%30.48 "Hg10 mi
11:00 AM37 °FSunny.5 mph93%30.48 "Hg10 mi
10:30 AM36 °FSunny.5 mph93%30.48 "Hg10 mi
10:00 AM36 °FSunny.6 mph93%30.48 "Hg10 mi
9:30 AM36 °FSunny.5 mph93%30.48 "Hg10 mi
9:00 AM34 °FSunny.5 mph100%30.48 "Hg10 mi
8:30 AM34 °FClear.6 mph100%30.45 "Hg10 mi
8:00 AM34 °FClear.6 mph100%30.48 "Hg10 mi
7:30 AM34 °FClear.7 mph100%30.45 "Hg10 mi
7:00 AM34 °FClear.8 mph100%30.45 "Hg10 mi
6:30 AM34 °FClear.7 mph100%30.45 "Hg6 mi
6:00 AM34 °FClear.7 mph100%30.45 "Hg6 mi
5:30 AM34 °FClear.5 mph93%30.45 "Hg6 mi
5:00 AM32 °FClear.7 mph100%30.42 "Hg10 mi
4:30 AM32 °FOvercast.8 mph100%30.42 "Hg5 mi
4:00 AM30 °FPassing clouds.6 mph100%30.42 "Hg5 mi
3:30 AM32 °FPassing clouds.6 mph93%30.42 "Hg4 mi
3:00 AM32 °FClear.7 mph93%30.42 "Hg6 mi
2:30 AM32 °FPartly cloudy.7 mph100%30.42 "HgN/A
2:00 AM32 °FPassing clouds.7 mph100%30.42 "HgN/A
1:30 AM32 °FPassing clouds.9 mph93%30.42 "HgN/A
1:00 AM32 °FPassing clouds.5 mph100%30.42 "HgN/A
12:30 AM32 °FPassing clouds.6 mph93%30.42 "HgN/A
12:00 AM34 °FPassing clouds.8 mph93%30.42 "HgN/A
11:30 PM
Jan 24
34 °FPassing clouds.6 mph93%30.42 "HgN/A
11:00 PM34 °FPassing clouds.5 mph93%30.39 "HgN/A
10:30 PM32 °FPassing clouds.6 mph100%30.39 "HgN/A
10:00 PM32 °FPassing clouds.5 mph93%30.39 "HgN/A
9:30 PM34 °FPassing clouds.5 mph93%30.39 "HgN/A
9:00 PM34 °FPassing clouds.5 mph93%30.39 "HgN/A
8:30 PM34 °FPassing clouds.6 mph87%30.39 "HgN/A
8:00 PM34 °FPassing clouds.7 mph87%30.36 "HgN/A
7:30 PM36 °FPassing clouds.6 mph87%30.36 "HgN/A
7:00 PM36 °FPassing clouds.7 mph87%30.36 "HgN/A
6:30 PM37 °FPassing clouds.7 mph81%30.33 "HgN/A
6:00 PM39 °FPassing clouds.9 mph75%30.33 "HgN/A
5:30 PM39 °FPassing clouds.9 mph81%30.30 "HgN/A
5:00 PM41 °FScattered clouds.12 mph76%30.30 "HgN/A
4:30 PM41 °FScattered clouds.14 mph76%30.27 "HgN/A
4:00 PM43 °FScattered clouds.13 mph71%30.27 "HgN/A
3:30 PM43 °FScattered clouds.15 mph71%30.24 "HgN/A
3:00 PM43 °FPartly sunny.16 mph71%30.24 "HgN/A
Weather by CustomWeather, © 2014

See weather overviewHow to use our weather pages